Theta_e
319 319 320 324 329 328 332 330 329 330 330 329 333 335 337 339 342 346 336 338 339 338 338 339 335 333 330 331 332 331 333 334 335 336 335 333 331 331 330 329 328 329 329 327 327 327 326 326 326
319 319 322 325 330 333 331 328 330 330 332 332 333 334 335 343 337 337 336 338 340 339 339 338 332 330 330 329 330 331 332 334 335 333 332 331 330 331 331 330 328 329 328 327 327 326 325 325 325
317 318 325 327 329 331 328 327 331 333 331 331 334 334 335 340 336 337 335 337 338 339 338 335 330 330 331 330 328 331 330 332 331 331 331 330 330 330 330 329 328 328 328 327 326 325 324 324 324
320 322 323 326 329 325 324 325 330 332 328 331 332 335 335 335 335 336 336 337 338 339 337 330 328 328 332 332 329 330 332 334 330 330 332 331 329 329 328 327 327 326 326 327 326 325 324 322 322
320 324 327 328 327 324 321 321 328 332 330 332 331 333 337 334 335 335 336 336 336 337 336 333 326 329 332 334 330 325 329 333 333 329 330 330 329 329 328 326 326 326 327 326 325 324 323 319 316
325 324 327 329 327 322 322 325 327 331 330 331 329 332 337 335 337 336 336 335 335 336 335 333 327 329 332 334 334 329 327 331 331 329 327 328 328 328 327 327 326 326 326 326 325 322 319 317 317
325 326 327 328 327 323 323 327 330 329 329 329 329 330 337 335 336 336 335 336 336 336 336 335 332 330 328 332 334 330 324 329 331 330 328 326 325 325 324 325 326 325 325 324 320 318 318 318 317
323 326 327 326 326 325 325 326 325 327 327 329 330 330 337 335 335 335 334 336 335 335 336 335 333 331 330 330 331 331 325 327 330 329 324 322 324 324 323 324 323 319 317 317 318 318 318 318 318
320 326 329 327 326 324 325 325 322 324 328 329 330 328 333 335 334 335 334 333 333 334 335 336 334 331 329 329 326 329 327 326 327 329 324 327 327 326 326 321 319 318 318 318 318 318 318 320 319
323 328 328 325 321 321 322 325 323 325 328 328 331 331 335 334 334 334 333 331 331 332 333 335 335 332 329 329 327 327 325 327 329 328 328 327 326 325 321 317 317 317 319 318 318 319 321 323 323
324 329 328 320 318 318 319 319 321 324 325 324 328 332 335 333 334 334 331 331 330 330 331 333 336 332 329 327 328 326 324 326 327 328 328 327 325 324 324 323 323 320 321 322 323 323 323 323 323
323 326 327 319 316 318 319 318 319 321 323 322 324 330 334 333 334 334 333 332 330 330 331 332 334 333 328 328 327 326 324 324 326 327 327 326 325 325 325 325 325 325 325 325 325 325 324 324 324
321 325 321 318 316 317 317 318 318 319 321 321 325 332 334 333 333 334 333 332 332 330 330 330 332 332 330 327 326 325 325 324 323 324 325 325 325 324 325 325 326 326 325 326 326 326 326 325 325
323 323 320 318 319 318 320 319 316 320 320 322 328 332 334 334 333 335 334 332 332 331 329 330 330 332 331 327 326 325 324 324 324 325 325 325 325 326 326 326 326 326 326 326 326 326 325 324 324
321 323 321 320 321 322 319 325 319 319 320 322 326 330 333 334 335 336 334 334 333 331 330 329 329 331 331 328 326 325 324 324 326 327 326 325 325 325 325 326 326 326 326 326 326 325 324 323 323
324 325 328 325 321 321 320 329 326 320 320 322 324 327 331 333 335 334 333 334 332 330 327 329 329 330 331 329 327 326 325 324 326 326 327 326 326 326 326 326 326 326 326 326 325 325 321 321 321
327 331 328 329 324 324 320 329 328 318 319 321 323 325 330 331 332 333 333 333 330 325 324 325 327 329 330 329 328 327 326 326 326 327 328 327 325 324 324 324 325 324 324 324 323 322 320 321 322
332 331 329 332 325 320 324 324 326 317 318 321 322 324 327 331 331 331 332 333 332 331 326 323 324 326 328 328 328 327 326 326 328 328 328 327 326 324 323 322 322 321 322 322 321 321 321 320 322
329 328 332 330 323 320 325 327 327 325 319 318 320 322 325 327 328 330 332 333 333 333 331 325 324 324 325 327 327 326 327 328 329 330 329 327 325 324 324 323 322 321 321 322 323 322 321 321 322
330 331 332 330 316 317 324 325 322 322 323 319 319 320 322 325 327 329 331 333 333 334 333 330 325 325 325 326 326 328 329 330 330 329 326 325 325 325 325 325 323 323 323 323 324 322 321 320 320
330 331 332 333 324 322 325 329 328 326 321 319 317 317 319 322 325 327 329 332 333 334 334 333 329 325 325 326 328 330 331 330 330 330 328 326 326 326 326 326 325 324 324 324 324 325 321 322 320
332 326 329 328 328 333 324 334 330 329 329 324 320 317 317 319 324 325 327 330 332 334 334 334 333 331 328 327 330 331 331 331 331 331 327 326 326 326 327 327 326 325 325 325 325 324 320 320 321
327 324 326 319 324 323 327 327 327 326 328 327 326 321 317 318 321 325 326 328 330 332 333 334 334 333 332 331 331 332 331 331 331 331 330 329 328 326 326 327 326 325 326 326 325 321 319 319 317
318 318 318 320 323 331 327 328 326 326 325 324 322 323 322 317 318 322 325 327 328 330 331 332 333 333 333 333 332 332 332 332 332 332 330 329 328 327 327 327 327 326 326 325 322 318 316 315 310
319 326 327 330 330 331 317 328 325 325 324 322 319 321 320 319 317 318 322 326 327 328 329 330 331 332 333 333 333 333 333 333 333 332 329 326 326 327 327 327 327 326 325 322 317 315 313 308 300
321 325 328 331 328 326 311 325 324 320 317 311 318 315 314 316 318 317 316 320 324 325 327 328 329 330 331 332 333 333 333 333 333 332 329 327 326 327 327 326 325 324 321 317 314 312 308 300 295
320 324 321 321 312 322 321 319 317 317 316 316 314 314 314 312 313 314 314 313 313 316 321 322 324 326 328 330 331 332 332 333 333 332 330 328 324 324 327 325 324 322 316 315 312 308 301 294 293
321 319 322 323 329 326 322 323 322 317 317 317 316 314 315 314 313 311 310 310 310 310 311 314 318 320 322 326 328 330 330 330 330 330 329 326 323 324 324 323 321 318 310 310 308 300 295 292 291
319 320 320 322 322 324 324 321 316 318 316 315 311 310 310 311 311 311 311 310 309 308 309 310 312 315 317 320 325 327 327 327 327 329 327 324 323 322 321 321 319 312 307 304 302 296 293 291 291
318 319 319 323 322 321 322 322 312 312 311 310 310 310 311 311 312 311 311 310 309 309 309 309 311 312 313 315 318 324 324 325 324 326 325 324 324 321 319 320 313 309 305 301 297 293 291 291 290
Wind_Speed
9 9 7 6 5 4 3 3 2 4 5 3 4 4 9 12 7 3 11 10 16 14 12 11 11 12 14 14 12 9 10 12 14 16 18 18 17 18 18 17 18 19 18 19 19 19 18 18 18
7 7 5 2 6 6 3 4 4 5 7 7 5 2 1 6 7 10 10 15 16 15 13 11 12 13 14 14 14 14 14 15 16 17 16 16 14 16 17 18 18 17 17 18 18 18 18 18 18
7 5 6 3 5 7 2 3 6 8 7 5 4 4 2 4 7 13 14 16 15 14 13 12 14 14 14 15 15 15 17 17 18 16 15 14 14 16 16 16 17 16 16 16 17 18 19 17 16
7 5 3 6 7 2 3 1 6 9 4 2 2 6 6 7 11 7 20 16 15 14 13 14 13 15 13 13 14 16 15 15 16 14 15 15 14 14 14 15 15 15 15 15 16 16 17 17 16
5 4 6 7 7 2 2 3 5 8 7 7 3 5 4 7 7 15 19 17 15 15 14 13 14 16 12 14 13 15 15 14 17 12 13 12 13 14 14 14 14 14 15 14 15 15 15 15 16
5 4 6 9 8 3 2 2 7 8 4 5 4 5 5 9 13 19 18 18 14 16 15 14 15 14 13 12 15 14 16 14 13 12 13 14 14 14 13 13 12 13 14 14 14 14 15 14 14
10 8 11 7 3 4 2 3 7 7 6 4 4 3 5 9 12 18 17 17 15 15 16 14 13 13 14 13 13 13 15 15 12 14 14 14 13 13 12 11 11 12 12 12 12 13 13 14 13
6 6 12 7 7 3 5 7 1 4 4 3 1 3 5 14 17 18 17 15 14 12 16 15 14 13 12 12 12 12 11 12 10 12 12 13 14 12 11 10 10 11 12 11 11 11 11 12 12
3 9 10 12 8 1 4 7 1 3 3 5 5 1 5 23 20 17 15 13 13 12 14 16 15 14 13 14 13 12 10 11 11 11 11 11 9 9 9 9 9 10 11 11 9 9 9 10 11
7 10 13 4 3 3 3 5 5 5 6 7 7 5 16 23 23 21 20 16 16 14 13 15 16 14 14 13 14 11 11 10 8 8 6 5 6 8 9 10 8 8 9 8 8 8 9 8 5
9 14 8 4 4 1 3 2 4 7 8 8 10 12 17 21 22 22 21 19 19 18 15 15 15 15 14 14 14 12 10 9 9 9 8 7 6 5 5 5 5 5 7 3 4 5 4 4 4
7 16 11 8 4 3 3 1 3 11 7 6 3 15 19 18 21 23 22 20 20 20 17 16 15 16 14 13 13 12 12 11 10 8 7 6 6 5 4 4 4 3 3 2 2 2 3 4 5
11 10 3 6 6 4 3 1 5 9 10 1 4 14 17 19 21 21 20 19 20 19 18 19 16 16 14 14 12 11 10 9 9 9 8 7 6 5 4 4 3 2 1 1 1 2 3 4 5
10 10 11 8 5 3 3 1 2 3 7 7 9 13 15 18 22 22 21 21 20 17 19 19 19 17 14 13 13 13 10 10 9 7 8 7 6 6 5 4 2 2 1 0 0 1 3 5 5
3 10 6 8 6 7 3 14 9 9 3 9 10 11 13 18 21 23 22 23 22 20 19 20 22 19 15 13 12 11 12 11 10 9 8 6 5 5 4 3 2 2 1 1 1 3 4 6 6
8 9 9 10 10 4 5 19 14 4 7 11 11 11 12 16 22 21 21 21 22 22 23 21 21 23 17 15 12 11 10 12 12 11 10 10 9 7 4 4 4 3 2 1 2 3 6 7 9
7 10 15 12 11 12 12 13 16 2 8 11 12 12 12 13 18 21 23 22 22 23 24 24 23 22 20 18 15 13 11 11 11 11 11 12 10 8 6 5 5 4 3 3 5 7 8 8 9
5 11 11 17 9 8 14 17 14 9 8 10 11 11 12 14 18 23 24 23 23 24 24 24 23 22 21 18 17 16 15 15 14 15 14 12 11 12 10 9 8 8 8 7 7 7 8 8 7
14 11 16 11 5 4 14 18 19 18 13 11 11 12 13 14 17 21 24 25 24 24 24 26 25 24 23 20 19 18 18 17 17 17 16 15 15 15 15 13 11 10 11 8 8 7 7 5 5
8 16 16 5 5 4 13 17 13 16 17 15 14 13 15 14 14 19 24 26 27 27 26 26 26 25 26 24 22 21 20 20 20 22 21 20 18 18 18 17 15 14 13 11 11 8 6 4 2
10 16 14 11 3 10 14 23 22 18 20 16 16 16 15 15 17 16 24 27 27 28 28 29 28 28 27 25 23 19 18 19 21 21 23 24 21 21 21 19 18 16 15 14 12 11 8 4 3
12 3 4 1 3 6 1 8 14 11 20 21 20 18 18 17 14 14 22 26 29 30 28 30 29 29 29 28 24 26 24 22 21 23 27 27 25 22 22 20 18 17 16 16 14 12 8 8 7
2 11 4 2 1 7 13 7 8 12 17 17 18 21 20 18 17 18 21 28 31 30 32 31 31 30 29 31 31 28 26 25 22 23 21 24 29 27 25 23 22 21 18 17 14 11 11 10 8
18 9 9 7 3 7 15 12 11 15 17 12 15 17 19 20 17 17 26 25 27 30 32 32 32 33 32 32 32 31 29 27 24 22 21 26 30 28 28 26 24 22 20 17 15 12 12 11 9
4 12 1 1 4 7 4 11 15 14 12 8 9 11 12 16 17 17 17 24 28 30 33 32 33 34 33 34 33 34 31 29 28 26 24 24 30 32 31 28 26 23 21 18 16 14 13 12 11
8 5 5 9 7 7 2 10 5 8 5 6 11 9 9 9 14 14 14 20 25 29 30 30 32 34 34 34 34 33 33 31 30 28 26 26 32 37 34 31 27 24 22 19 17 16 16 15 13
6 5 4 5 2 2 7 10 14 14 14 12 12 10 12 5 8 9 11 16 18 20 25 30 30 32 31 34 32 32 32 32 30 32 30 27 28 33 35 32 29 26 25 22 20 19 18 16 15
12 13 5 1 6 7 10 15 10 6 10 10 11 7 5 5 4 5 7 12 16 17 19 21 26 29 31 31 33 33 32 31 31 29 31 28 32 34 34 33 31 29 26 24 23 22 20 18 16
9 9 7 5 5 4 5 9 4 4 4 4 2 3 2 0 3 3 4 4 8 11 15 19 22 27 30 33 33 31 31 33 31 34 33 34 33 34 36 35 35 32 28 25 25 23 22 19 17
16 14 12 7 6 7 4 11 4 5 7 6 5 5 5 3 5 4 4 6 6 9 11 14 15 18 21 22 25 25 27 31 32 35 37 35 32 34 37 40 38 32 30 30 28 25 23 20 18
Wind_Direction
324 314 298 263 255 240 245 171 11 141 150 65 43 352 38 30 9 41 141 138 140 139 143 132 135 125 120 123 117 121 125 119 112 106 102 102 100 92 92 84 88 86 81 77 75 73 72 73 74
308 311 257 264 261 255 150 106 185 112 86 115 122 124 131 74 58 121 142 150 144 141 137 135 136 121 116 116 118 113 119 115 108 109 109 105 103 98 89 88 87 84 83 80 77 73 70 73 74
305 288 258 247 259 269 350 167 114 112 130 168 127 10 35 77 109 136 144 145 137 141 134 148 139 131 126 115 118 121 117 115 116 117 113 116 102 96 87 87 84 82 82 83 79 73 69 73 76
270 207 230 239 245 313 320 65 124 143 140 171 107 107 100 36 140 149 149 145 144 137 136 143 142 142 136 132 119 127 121 117 121 121 111 104 99 96 91 88 86 82 85 87 83 78 74 73 76
260 255 235 230 240 297 279 320 188 180 144 154 195 129 76 109 139 152 155 151 149 140 141 141 141 139 133 145 128 135 135 120 129 121 116 107 99 98 96 93 88 88 92 94 89 80 78 78 77
218 274 236 223 209 174 244 269 203 189 147 118 190 134 107 138 149 154 159 151 146 149 144 144 149 145 138 127 139 130 141 132 129 125 115 107 104 102 100 96 95 94 95 92 85 79 77 79 76
256 206 244 262 256 223 176 174 195 185 173 158 72 176 94 149 165 159 159 143 151 154 149 149 149 151 149 140 134 135 143 145 132 132 119 113 112 110 108 106 97 95 96 95 89 82 78 76 75
277 246 235 238 228 215 141 167 292 195 146 102 89 179 166 166 168 162 150 144 151 161 161 157 154 147 141 141 149 136 133 150 134 128 122 119 117 114 101 95 104 97 93 95 91 85 79 73 70
273 237 232 226 235 157 126 188 153 33 146 205 163 353 89 152 161 155 152 143 155 175 175 159 163 155 150 143 152 157 146 142 142 134 114 95 109 105 106 124 109 103 97 93 89 85 82 68 54
233 223 233 340 14 97 150 228 163 210 191 211 179 127 133 156 164 166 170 170 167 165 192 170 165 160 156 153 140 144 147 148 154 151 134 126 118 130 116 107 105 101 93 84 77 74 61 53 40
226 238 221 147 110 142 102 221 233 237 233 234 205 167 154 171 175 181 182 178 177 172 183 188 176 165 164 159 153 152 158 168 167 169 155 146 129 115 117 99 84 79 76 58 47 36 54 48 44
240 230 225 148 134 186 131 99 247 243 259 15 239 154 164 181 185 188 186 181 181 175 178 193 186 174 170 168 164 165 166 171 171 172 164 156 150 151 143 133 126 115 114 101 78 50 42 29 16
229 222 239 149 159 115 159 88 284 265 261 330 158 153 173 186 189 198 192 187 185 180 179 189 197 187 178 171 170 169 171 172 173 169 172 165 160 161 155 147 142 135 114 95 33 18 10 359 356
214 204 206 191 178 139 278 247 261 221 235 198 184 178 179 190 193 197 192 192 191 189 189 190 192 194 186 181 177 170 174 174 174 181 185 171 169 170 169 169 178 184 184 197 32 25 347 336 337
165 196 194 200 236 238 276 255 230 263 188 211 206 196 182 189 199 206 199 196 193 193 190 192 196 190 194 189 184 182 177 178 179 183 186 177 173 180 178 188 199 206 219 241 290 330 331 325 325
212 230 206 219 207 205 213 257 241 214 224 224 211 207 197 199 204 205 209 202 194 190 190 190 195 198 191 192 190 193 196 185 188 190 189 189 186 183 193 210 218 201 200 243 292 316 335 329 323
202 218 220 236 206 217 212 258 250 195 232 239 219 212 200 214 210 207 211 207 197 194 193 191 194 196 199 193 190 195 199 202 198 197 198 200 199 197 193 211 223 233 230 254 279 312 322 329 329
181 194 222 226 176 213 232 248 257 190 239 243 243 213 212 215 211 210 213 211 205 201 197 193 194 197 198 199 196 196 199 204 205 207 207 207 206 211 210 213 234 247 252 263 280 296 309 317 322
195 197 232 225 151 224 241 251 248 244 229 236 237 237 219 220 219 211 215 212 208 206 202 199 195 196 193 197 198 198 202 204 209 209 206 205 216 223 221 223 232 241 245 255 264 274 294 306 333
216 204 219 260 146 241 262 258 251 255 253 234 234 228 230 218 212 208 213 211 208 206 205 205 201 199 199 195 200 205 203 207 209 213 219 217 219 224 227 228 229 233 242 244 251 265 271 273 349
208 215 222 219 161 242 274 274 258 249 244 241 244 235 225 222 215 207 208 210 209 212 206 206 203 203 203 201 199 205 212 213 214 214 219 221 222 230 227 229 235 239 245 249 242 244 259 241 247
197 198 236 284 258 268 191 282 272 252 230 222 229 229 225 216 215 215 207 210 212 212 211 214 209 206 206 203 202 200 205 204 210 212 222 223 222 225 228 229 233 239 240 237 242 249 246 242 222
165 179 194 106 339 327 241 266 270 245 246 249 228 227 226 216 208 206 204 208 210 209 212 214 212 211 208 207 207 204 210 216 217 216 213 211 219 223 225 228 230 232 234 242 237 237 231 222 210
136 97 60 56 44 251 243 242 255 253 242 245 244 248 227 226 212 210 206 205 209 211 213 212 211 212 212 210 211 211 210 211 216 213 206 209 217 218 220 224 228 229 231 228 227 226 225 222 208
133 157 136 194 201 249 359 222 254 285 274 277 289 277 236 227 224 215 203 196 207 207 211 211 210 213 214 213 213 214 215 216 220 215 208 205 213 216 219 221 220 219 219 213 213 211 212 207 195
172 147 179 202 217 254 128 239 266 234 283 268 254 256 271 263 223 225 224 216 209 210 208 209 212 215 212 212 217 216 216 218 222 221 215 212 217 219 220 217 215 215 207 208 205 206 206 198 190
159 178 304 99 40 286 222 248 258 230 250 251 251 245 237 253 245 254 241 231 227 221 217 213 212 219 216 214 214 217 220 221 219 220 221 214 214 218 218 212 208 207 208 206 206 203 199 191 184
183 153 130 158 203 241 246 247 246 204 247 263 236 254 245 268 210 242 240 244 237 233 226 222 223 221 218 216 215 215 215 219 222 221 218 207 217 221 214 206 206 202 208 202 200 196 191 192 184
162 180 202 187 233 236 279 258 346 242 243 248 87 49 335 144 33 353 320 273 253 246 237 230 228 225 220 215 212 212 213 216 217 218 218 212 224 219 210 205 200 202 201 201 197 194 190 191 185
198 186 179 189 182 243 312 263 137 137 127 158 141 112 77 60 40 16 339 311 271 250 242 237 237 240 238 229 215 213 214 215 217 219 218 222 225 220 210 204 202 199 198 199 196 192 191 192 188